Wind_Speed
20 19 18 18 18 18 16 15 15 16 15 14 13 13 14 14 14 15 15 14 14 15 16 17 18 18 17 18 18 18 20 21 22 24 25 25 24 22 21 20 19 18 16 14
20 19 19 19 18 17 15 15 15 16 15 14 13 13 13 14 14 15 15 15 15 16 16 17 18 17 16 17 17 18 19 22 22 23 25 26 25 24 23 21 20 19 17 15
20 20 20 19 17 16 15 15 15 16 15 14 13 13 14 14 14 14 14 15 15 15 16 17 16 15 14 15 16 17 18 19 22 24 25 27 26 25 23 22 22 20 18 17
21 21 20 18 17 16 15 16 16 15 14 13 13 11 14 13 13 14 13 13 13 13 14 13 13 12 12 12 14 15 17 19 21 22 25 26 26 24 23 23 22 21 19 18
20 20 19 18 17 17 17 16 16 15 13 13 13 11 12 13 12 12 13 12 12 12 11 11 10 10 11 11 11 13 16 18 19 21 23 25 25 25 24 23 22 21 19 18
20 19 19 18 18 18 17 16 15 13 12 12 13 11 10 12 12 12 12 12 12 12 11 10 8 8 9 9 10 12 14 16 18 21 24 25 24 24 24 23 22 20 20 19
19 19 19 18 18 17 16 15 12 12 12 12 13 11 11 12 11 12 12 11 11 11 10 9 8 8 7 8 9 11 14 15 18 20 23 24 24 23 23 22 21 20 20 20
18 18 19 18 18 17 16 15 14 12 11 11 14 12 11 11 11 11 11 11 11 10 9 8 7 7 7 7 8 11 12 15 17 19 22 23 22 22 21 21 21 20 19 19
17 18 19 19 19 19 18 17 16 14 12 11 12 12 11 10 10 11 10 10 9 9 7 7 7 6 5 6 7 8 9 13 15 18 21 22 21 21 20 20 19 20 19 19
18 18 20 20 20 20 19 18 17 15 14 12 11 11 9 10 9 10 9 9 8 8 7 7 6 5 4 4 6 7 8 11 13 15 18 20 20 21 20 19 18 19 19 19
19 19 19 19 19 18 19 19 18 16 16 13 11 11 12 10 9 10 10 9 8 8 8 7 6 6 5 3 4 6 7 9 12 13 15 17 18 19 20 19 19 19 18 18
20 19 18 19 20 20 19 18 18 17 17 16 14 13 14 12 10 10 10 9 8 8 7 7 6 6 5 3 4 6 8 9 11 12 14 15 17 18 19 19 18 19 19 18
21 20 19 19 20 21 21 20 19 18 18 17 15 14 16 12 12 11 11 11 10 9 8 8 6 6 5 4 4 6 7 9 10 11 12 14 15 17 17 18 18 18 19 18
22 22 20 18 19 20 21 21 20 20 18 17 17 17 17 15 14 13 12 12 11 10 9 9 8 7 6 6 6 6 7 8 9 10 11 12 14 15 16 17 18 18 18 19
23 23 22 22 22 21 21 21 21 21 20 19 18 18 18 18 16 15 13 13 13 11 10 9 9 9 8 8 8 8 9 9 10 11 12 13 14 16 16 17 18 18 19 19
25 24 23 23 23 22 23 22 22 22 21 21 20 20 20 20 19 17 16 15 14 13 11 10 11 11 11 11 10 10 10 10 11 12 13 14 15 17 18 18 18 18 19 20
26 25 23 22 23 23 24 22 22 22 23 23 22 22 21 22 20 19 19 18 16 15 14 13 12 12 13 13 13 12 12 12 13 13 15 16 17 17 18 19 19 19 20 21
24 23 22 23 23 23 24 23 23 23 23 24 24 24 22 22 21 21 20 20 19 18 17 16 15 14 14 14 14 14 14 14 15 15 16 17 18 19 20 20 21 22 23 23
25 24 23 23 22 23 24 22 22 23 24 24 25 24 24 23 23 23 23 23 22 21 19 19 18 17 17 16 16 16 16 16 16 17 18 19 19 21 22 23 23 24 25 26
24 24 24 23 23 24 25 23 23 24 25 24 24 24 24 25 25 25 24 24 23 22 22 21 21 20 19 18 18 18 18 18 18 19 20 21 22 23 24 25 26 26 27 28
24 23 23 23 23 25 25 23 24 25 25 24 24 24 25 26 26 26 25 24 25 24 23 23 23 22 21 20 20 19 20 20 20 21 22 23 23 25 27 27 27 28 29 30
22 22 22 23 24 26 24 24 24 25 24 23 24 24 24 25 26 26 26 25 25 25 25 24 24 24 23 23 23 22 22 22 23 23 24 24 25 26 27 29 29 30 31 32
23 23 23 23 23 23 23 24 24 24 23 23 23 24 24 24 24 24 25 25 25 25 25 25 26 25 24 24 25 24 24 25 25 26 26 26 27 28 28 30 31 32 33 34
23 22 21 21 21 21 21 22 22 23 23 22 23 23 23 23 23 24 24 24 24 24 25 25 25 25 25 25 25 25 26 27 26 26 27 28 29 29 30 30 31 33 34 35
21 21 20 20 20 19 19 19 19 20 20 21 21 21 22 22 23 23 23 23 23 23 24 25 25 25 25 25 25 26 26 27 27 28 29 29 29 30 31 32 32 32 32 34
19 19 19 19 19 18 18 17 18 18 17 18 19 20 21 21 21 22 22 22 23 24 25 25 25 26 26 26 27 28 28 29 29 29 29 29 29 29 30 31 31 31 33 34
Wind_Direction
258 257 255 253 250 249 251 251 255 260 266 270 275 280 284 290 293 295 294 292 293 292 287 282 278 274 267 261 253 249 236 232 227 223 219 216 215 215 216 217 217 219 219 217
254 252 249 248 248 249 249 249 251 257 263 269 275 281 285 289 292 294 294 294 293 291 288 283 277 274 267 256 247 244 234 231 227 224 220 216 214 216 217 218 218 218 217 217
248 246 246 245 244 245 245 244 245 251 262 269 274 285 288 290 291 294 296 298 298 293 289 285 280 274 271 261 247 241 231 227 225 224 221 216 215 215 218 219 219 218 218 218
242 243 242 241 240 241 241 242 244 251 259 266 275 280 289 291 292 295 299 302 304 303 297 290 280 273 271 265 250 242 228 226 223 223 219 215 214 215 217 217 218 217 218 217
239 239 237 236 236 236 237 241 244 251 258 265 278 278 285 290 293 295 298 303 307 310 308 297 282 276 271 266 251 235 227 225 222 217 215 213 212 214 215 216 216 217 217 217
234 236 234 232 232 234 237 241 248 255 260 266 269 275 284 289 292 294 296 302 307 311 311 304 290 281 272 263 247 228 224 221 220 215 213 209 210 213 214 215 215 216 217 217
232 232 231 230 230 234 236 239 248 256 260 262 267 271 274 283 289 292 299 303 306 311 312 308 294 285 277 258 245 235 230 223 218 214 210 207 209 211 212 214 216 217 219 218
230 231 230 227 227 233 235 233 233 239 251 261 272 272 273 284 289 291 299 304 310 312 310 313 303 285 275 256 244 238 232 224 216 210 205 203 206 207 210 212 213 214 214 213
221 225 229 228 228 230 234 233 234 241 248 251 261 271 278 283 285 291 300 304 308 316 321 320 318 294 274 256 241 231 228 218 210 204 202 201 202 204 207 208 210 211 210 211
217 219 226 229 230 232 232 236 239 240 243 250 262 271 275 278 283 291 293 297 298 308 320 323 323 311 287 262 236 218 211 203 201 199 199 200 203 205 206 208 210 211 212 212
218 218 226 229 230 234 236 237 239 243 242 244 254 265 266 266 275 283 283 287 287 295 305 315 316 317 314 272 226 212 203 201 198 198 199 202 206 207 207 209 211 212 212 215
222 221 225 231 233 233 236 237 241 244 252 249 248 258 264 261 268 273 271 274 278 284 291 297 301 296 305 293 236 214 208 206 205 204 204 206 208 208 209 210 213 214 217 221
225 225 226 234 239 237 237 239 242 246 250 252 251 259 261 254 259 266 267 264 267 271 276 278 279 281 274 265 246 222 217 213 211 210 210 211 211 210 211 213 216 220 222 224
228 230 227 232 238 242 242 242 245 249 250 253 253 250 252 251 254 258 261 259 260 264 267 267 266 262 259 258 248 237 227 219 216 214 214 214 213 213 215 218 221 224 228 230
228 232 234 235 239 243 245 246 248 250 249 248 250 250 247 249 252 253 255 255 256 260 260 261 260 259 255 251 246 242 235 227 221 220 219 220 220 220 221 223 226 229 232 234
231 235 237 239 242 245 246 248 250 251 250 250 250 248 246 249 249 248 248 249 250 252 256 257 256 254 251 247 244 242 240 234 232 230 229 230 230 229 229 231 231 232 235 238
235 236 237 241 243 245 246 246 247 249 250 249 248 246 244 246 245 247 247 247 246 250 254 255 256 253 246 244 244 243 243 241 240 238 236 236 236 236 237 238 239 241 242 243
234 237 240 242 243 244 245 244 245 247 249 248 247 244 244 245 245 245 245 246 248 252 254 252 254 254 249 246 245 244 244 247 247 247 245 243 240 240 241 242 244 246 248 249
234 235 239 241 245 248 249 246 246 248 249 248 247 243 243 244 246 247 246 247 248 249 248 248 250 252 252 248 247 247 247 249 249 250 250 249 247 245 245 247 248 249 252 253
234 237 240 242 244 248 250 247 247 248 251 247 247 244 244 245 246 247 247 247 246 247 245 245 246 249 250 249 249 250 250 252 252 252 252 252 251 250 250 251 253 254 255 256
234 236 240 244 247 251 252 251 248 248 250 247 246 244 244 244 244 246 246 246 244 244 245 245 245 246 247 248 249 251 252 254 255 253 253 254 255 254 253 255 256 257 259 261
235 238 240 244 247 251 253 251 248 247 247 246 243 243 243 243 243 242 242 244 242 242 244 244 245 245 247 249 251 253 254 254 255 255 256 257 258 258 257 257 258 259 261 263
235 237 241 243 246 249 251 249 246 244 245 245 243 241 240 241 240 239 239 241 241 243 245 246 245 244 247 248 250 253 254 254 255 256 257 257 259 261 263 262 262 263 265 267
235 237 240 242 244 246 247 247 244 243 244 244 242 240 239 240 238 238 239 241 241 243 244 244 244 245 246 247 250 252 253 253 255 257 259 260 260 261 263 265 265 266 267 268
234 235 238 240 241 241 241 243 241 240 240 241 239 238 239 239 239 239 241 242 242 242 243 243 244 245 246 249 251 252 254 255 257 258 259 260 262 266 267 267 268 268 270 271
232 234 235 236 237 238 238 238 238 238 238 238 237 237 238 238 239 239 240 242 243 243 243 243 244 247 248 248 249 251 254 256 258 257 259 261 264 267 266 267 269 271 274 276
Height
5849 5852 5852 5854 5855 5857 5858 5859 5860 5860 5860 5861 5861 5862 5861 5859 5858 5856 5854 5852 5850 5849 5847 5845 5843 5842 5842 5842 5841 5843 5844 5846 5849 5852 5856 5860 5863 5866 5869 5872 5874 5876 5879 5881
5845 5846 5847 5848 5850 5852 5854 5855 5857 5857 5857 5858 5858 5858 5857 5856 5855 5853 5851 5849 5847 5845 5843 5840 5839 5837 5837 5837 5837 5838 5839 5842 5845 5849 5852 5856 5859 5862 5865 5868 5871 5873 5876 5878
5839 5841 5842 5844 5845 5848 5850 5852 5853 5853 5854 5854 5855 5856 5854 5853 5851 5849 5847 5845 5843 5841 5838 5836 5834 5833 5832 5832 5832 5833 5835 5837 5841 5844 5848 5851 5855 5858 5862 5865 5868 5871 5873 5876
5833 5835 5837 5839 5841 5843 5846 5847 5848 5850 5851 5853 5853 5854 5852 5849 5848 5846 5844 5842 5839 5837 5834 5832 5830 5829 5829 5828 5828 5829 5831 5833 5836 5839 5843 5847 5852 5855 5859 5862 5865 5868 5870 5873
5829 5830 5832 5835 5837 5839 5842 5843 5845 5846 5848 5849 5849 5850 5851 5846 5844 5843 5841 5839 5836 5834 5831 5829 5827 5826 5826 5825 5825 5826 5827 5830 5833 5836 5839 5844 5848 5852 5855 5858 5861 5865 5868 5870
5824 5826 5828 5831 5833 5835 5837 5840 5841 5843 5845 5847 5846 5846 5847 5844 5841 5840 5838 5836 5834 5831 5829 5827 5825 5824 5823 5822 5822 5823 5825 5827 5829 5832 5836 5840 5844 5848 5852 5855 5859 5862 5865 5867
5820 5822 5824 5826 5829 5831 5834 5838 5840 5842 5843 5844 5842 5842 5843 5840 5838 5836 5835 5833 5831 5829 5827 5825 5823 5822 5821 5821 5821 5822 5823 5824 5826 5829 5832 5837 5841 5845 5849 5853 5856 5859 5862 5865
5816 5819 5820 5822 5826 5828 5830 5834 5838 5840 5841 5842 5839 5838 5839 5836 5834 5833 5832 5831 5829 5827 5825 5823 5821 5820 5820 5819 5820 5820 5821 5822 5823 5826 5830 5834 5839 5843 5846 5850 5853 5856 5859 5862
5813 5816 5816 5818 5821 5824 5826 5829 5833 5835 5836 5837 5837 5836 5834 5833 5832 5831 5830 5829 5827 5825 5823 5822 5820 5819 5819 5818 5819 5819 5819 5820 5822 5825 5829 5833 5837 5841 5844 5848 5850 5854 5857 5860
5808 5811 5812 5814 5817 5819 5822 5825 5827 5830 5831 5833 5834 5833 5833 5830 5829 5828 5827 5827 5826 5824 5823 5821 5820 5819 5818 5818 5818 5819 5819 5820 5822 5825 5828 5832 5835 5839 5843 5846 5849 5852 5855 5858
5804 5807 5809 5811 5813 5816 5818 5820 5822 5825 5827 5829 5831 5833 5828 5827 5826 5826 5825 5825 5824 5823 5822 5821 5820 5819 5818 5818 5818 5819 5820 5822 5823 5826 5828 5831 5835 5838 5841 5845 5847 5850 5853 5856
5799 5803 5806 5808 5809 5811 5813 5816 5818 5821 5822 5823 5826 5830 5824 5824 5823 5823 5823 5822 5822 5822 5821 5820 5820 5819 5819 5819 5819 5820 5821 5822 5824 5826 5828 5831 5834 5836 5839 5842 5845 5848 5851 5853
5794 5798 5801 5804 5806 5807 5808 5810 5813 5815 5817 5819 5822 5825 5820 5820 5820 5820 5820 5820 5820 5820 5819 5819 5819 5818 5819 5819 5819 5820 5821 5822 5824 5826 5828 5830 5832 5835 5838 5840 5843 5846 5848 5851
5790 5793 5798 5801 5802 5802 5804 5806 5807 5810 5812 5814 5816 5817 5816 5816 5816 5816 5816 5817 5817 5817 5817 5817 5817 5817 5818 5818 5819 5820 5821 5822 5824 5825 5827 5829 5831 5833 5836 5838 5841 5844 5846 5848
5785 5788 5790 5793 5794 5797 5799 5800 5802 5804 5806 5808 5810 5810 5811 5811 5811 5812 5813 5813 5814 5814 5814 5814 5815 5815 5816 5817 5818 5819 5820 5821 5823 5824 5826 5828 5830 5832 5834 5836 5838 5840 5842 5844
5778 5781 5784 5787 5789 5791 5792 5794 5796 5798 5799 5801 5802 5804 5804 5805 5806 5807 5808 5809 5810 5811 5811 5812 5812 5813 5814 5815 5816 5817 5818 5820 5821 5822 5823 5825 5827 5829 5831 5833 5835 5837 5839 5841
5772 5775 5778 5781 5782 5784 5787 5789 5790 5791 5792 5794 5796 5797 5798 5799 5800 5802 5803 5804 5806 5807 5808 5808 5809 5810 5811 5812 5813 5814 5816 5817 5819 5820 5821 5823 5824 5826 5828 5830 5831 5833 5835 5836
5766 5769 5772 5774 5776 5778 5781 5782 5783 5784 5785 5787 5788 5790 5791 5793 5795 5796 5798 5799 5801 5802 5803 5804 5805 5806 5807 5809 5810 5811 5813 5814 5815 5817 5818 5819 5821 5822 5824 5826 5827 5829 5830 5831
5759 5763 5765 5768 5769 5771 5773 5775 5776 5777 5778 5780 5781 5783 5784 5786 5788 5790 5792 5793 5795 5797 5798 5799 5800 5801 5803 5804 5806 5807 5809 5810 5811 5813 5814 5815 5816 5818 5819 5821 5822 5823 5824 5825
5753 5756 5760 5761 5763 5765 5767 5768 5769 5771 5771 5773 5774 5776 5778 5780 5782 5784 5785 5787 5789 5791 5792 5794 5795 5796 5798 5799 5801 5803 5804 5805 5806 5807 5809 5810 5811 5813 5814 5815 5816 5817 5818 5818
5747 5750 5752 5754 5756 5757 5759 5760 5762 5765 5765 5766 5767 5769 5771 5773 5775 5777 5779 5781 5783 5784 5786 5788 5790 5791 5793 5794 5796 5798 5799 5800 5801 5802 5803 5804 5805 5806 5807 5808 5809 5810 5810 5811
5740 5743 5745 5747 5749 5751 5752 5753 5755 5756 5757 5759 5760 5762 5764 5766 5768 5770 5772 5774 5776 5778 5780 5782 5784 5785 5787 5789 5790 5792 5793 5794 5795 5796 5797 5798 5799 5799 5800 5801 5802 5802 5803 5803
5734 5737 5738 5741 5743 5743 5744 5745 5747 5749 5750 5752 5753 5755 5757 5759 5761 5763 5766 5768 5770 5771 5773 5775 5777 5779 5781 5782 5784 5785 5786 5787 5788 5789 5790 5791 5792 5792 5793 5793 5794 5794 5794 5794
5728 5730 5732 5734 5735 5736 5737 5738 5740 5742 5744 5746 5747 5749 5751 5753 5755 5757 5760 5762 5763 5765 5767 5769 5771 5773 5774 5776 5777 5778 5779 5780 5781 5782 5783 5783 5783 5784 5784 5785 5785 5785 5785 5784
5722 5724 5726 5727 5729 5730 5731 5733 5734 5736 5738 5739 5741 5743 5745 5747 5749 5752 5754 5755 5757 5759 5760 5762 5764 5766 5768 5769 5770 5771 5772 5773 5774 5775 5775 5775 5775 5776 5776 5776 5776 5775 5775 5774
5717 5719 5721 5722 5724 5726 5727 5728 5730 5731 5732 5734 5736 5738 5739 5741 5744 5746 5748 5749 5751 5752 5754 5756 5757 5759 5761 5762 5763 5764 5766 5766 5767 5767 5767 5767 5768 5767 5767 5767 5766 5765 5765 5764